This demonstration page uses our WeatherBlox Daily Observations layout. Learn more.

Hourly Observations for April 9, 2016

Temp ( °F °C ) Dew Point ( °F °C ) Humidity (%) Winds ( mph kmh ) Pressure ( in mb ) Visibility ( mi km ) Precip ( " mm )
12:15 am 00:15 Clear 39 3.9 24 -4.7 54 54 E 10 17 30.18 1022 10 16.0934 0 0
12:35 am 00:35 Clear 37 3 23 -5 56 56 E 10 17 30.21 1023 10 16.0934 0 0
12:55 am 00:55 Clear 36 2.1 23 -5 60 60 E 9 15 30.21 1023 10 16.0934 0 0
1:15 am 01:15 Clear 35 1.8 23 -5.1 61 61 E 9 15 30.21 1023 10 16.0934 0 0
1:35 am 01:35 Clear 33 0.7 22 -5.3 65 65 ESE 9 15 30.24 1024 10 16.0934 0 0
1:55 am 01:55 Clear 33 0.8 23 -5.2 65 65 E 13 20 30.21 1023 10 16.0934 0 0
2:15 am 02:15 Clear 33 0.6 22 -5.6 64 64 E 10 17 30.24 1024 10 16.0934 0 0
2:35 am 02:35 Clear 33 0.3 22 -5.8 64 64 E 9 15 30.24 1024 10 16.0934 0 0
2:55 am 02:55 Clear 32 0.1 21 -6 64 64 E 12 19 30.24 1024 10 16.0934 0 0
3:15 am 03:15 Clear 32 0 20 -6.4 62 62 E 10 17 30.24 1024 10 16.0934 0 0
3:35 am 03:35 Clear 31 -0.3 20 -6.5 63 63 E 12 19 30.21 1023 10 16.0934 0 0
3:55 am 03:55 Clear 31 -0.6 20 -6.7 64 64 ESE 9 15 30.21 1023 10 16.0934 0 0
4:15 am 04:15 Clear 31 -0.7 19 -7.2 62 62 ESE 9 15 30.21 1023 10 16.0934 0 0
4:35 am 04:35 Clear 30 -1 19 -7.5 62 62 ESE 9 15 30.21 1023 10 16.0934 0 0
4:55 am 04:55 Clear 30 -1.3 19 -7.5 63 63 ESE 9 15 30.21 1023 10 16.0934 0 0
5:15 am 05:15 Clear 29 -1.5 18 -7.6 64 64 SE 9 15 30.21 1023 10 16.0934 0 0
5:35 am 05:35 Clear 28 -2 18 -7.7 65 65 ESE 8 13 30.21 1023 10 16.0934 0 0
5:55 am 05:55 Clear 29 -1.8 17 -8.1 62 62 SE 9 15 30.18 1022 10 16.0934 0 0
6:15 am 06:15 Clear 29 -1.7 17 -8.5 60 60 SE 9 15 30.18 1022 10 16.0934 0 0
6:35 am 06:35 Clear 28 -2 17 -8.5 61 61 SE 9 15 30.18 1022 10 16.0934 0 0
6:55 am 06:55 Clear 28 -2 17 -8.5 61 61 SE 8 13 30.18 1022 10 16.0934 0 0
7:15 am 07:15 Sunny 28 -2.5 17 -8.6 63 63 SE 7 11 30.18 1022 10 16.0934 0 0
7:35 am 07:35 Sunny 28 -2 17 -8.5 61 61 SE 8 13 30.18 1022 10 16.0934 0 0
7:55 am 07:55 Sunny 30 -1.2 17 -8.3 59 59 SE 10 17 30.18 1022 10 16.0934 0 0
8:15 am 08:15 Sunny 31 -0.4 17 -8.5 55 55 SE 13 20 30.18 1022 10 16.0934 0 0
8:35 am 08:35 Sunny 32 0.2 16 -8.9 51 51 SE 15 24 30.15 1021 10 16.0934 0 0
8:55 am 08:55 Sunny 34 1.2 15 -9.5 45 45 SE 15 24 30.15 1021 10 16.0934 0 0
9:15 am 09:15 Sunny 36 2.2 14 -9.9 41 41 SE 16 26 30.12 1020 10 16.0934 0 0
9:35 am 09:35 Sunny 37 3 13 -10.4 37 37 SE 21 33 30.09 1019 10 16.0934 0 0
9:55 am 09:55 Sunny 39 3.8 14 -9.8 37 37 SE 21 33 30.09 1019 10 16.0934 0 0
10:15 am 10:15 Sunny 41 5.1 15 -9.4 35 35 SE 20 31 30.06 1018 10 16.0934 0 0
10:35 am 10:35 Sunny 42 5.7 16 -9.1 34 34 SE 20 31 30.06 1018 10 16.0934 0 0
10:55 am 10:55 Sunny 44 6.8 17 -8.6 33 33 SE 20 31 30.03 1017 10 16.0934 0 0
11:15 am 11:15 Sunny 46 7.5 18 -7.9 33 33 SE 22 35 30 1016 10 16.0934 0 0
11:35 am 11:35 Sunny 47 8.6 19 -7.4 32 32 SSE 20 31 30 1016 10 16.0934 0 0
11:55 am 11:55 Sunny 48 9.1 20 -6.9 32 32 SSE 21 33 29.97 1015 10 16.0934 0 0
12:15 pm 12:15 Sunny 50 9.8 21 -6.2 32 32 SSE 21 33 29.94 1014 10 16.0934 0 0
12:35 pm 12:35 Sunny 50 10.1 22 -5.7 33 33 SSE 20 31 29.91 1013 10 16.0934 0 0
12:55 pm 12:55 Sunny 51 10.8 23 -5.1 33 33 SSE 21 33 29.91 1013 10 16.0934 0 0
1:15 pm 13:15 Sunny 53 11.5 24 -4.4 33 33 SSE 20 31 29.85 1011 10 16.0934 0 0
1:35 pm 13:35 Sunny 54 12.3 25 -4 32 32 SSE 15 24 29.85 1011 10 16.0934 0 0
1:55 pm 13:55 Sunny 56 13.1 26 -3.3 32 32 SSE 16 26 29.83 1010 10 16.0934 0 0
2:15 pm 14:15 Sunny 57 13.9 27 -2.7 32 32 SSE 17 28 29.83 1010 10 16.0934 0 0
2:35 pm 14:35 Sunny 58 14.3 28 -2.2 32 32 SSE 17 28 29.77 1008 10 16.0934 0 0
2:55 pm 14:55 Sunny 59 14.9 29 -1.7 32 32 S 21 33 29.77 1008 10 16.0934 0 0
3:15 pm 15:15 Sunny 63 17 31 -0.4 31 31 S 18 30 29.74 1007 10 16.0934 0 0
3:35 pm 15:35 Sunny 64 17.7 32 0 30 30 S 18 30 29.71 1006 10 16.0934 0 0
3:55 pm 15:55 Sunny 65 18.2 32 0.2 30 30 S 18 30 29.71 1006 10 16.0934 0 0
4:15 pm 16:15 Sunny 66 18.7 33 0.7 30 30 S 17 28 29.68 1005 10 16.0934 0 0
4:35 pm 16:35 Sunny 67 19.4 35 1.6 31 31 S 18 30 29.68 1005 10 16.0934 0 0
4:55 pm 16:55 Sunny 68 20.1 36 2.2 31 31 SSE 20 31 29.65 1004 10 16.0934 0 0
5:15 pm 17:15 Sunny 70 20.9 37 2.8 30 30 SSE 18 30 29.62 1003 10 16.0934 0 0
5:35 pm 17:35 Sunny 70 21.2 38 3.2 31 31 SSE 18 30 29.59 1002 10 16.0934 0 0
5:55 pm 17:55 Sunny 71 21.5 38 3.6 31 31 SSE 20 31 29.59 1002 10 16.0934 0 0
6:15 pm 18:15 Sunny 71 21.9 40 4.3 32 32 SSE 23 37 29.56 1001 10 16.0934 0 0
6:35 pm 18:35 Sunny 72 22.2 40 4.6 32 32 SSE 20 31 29.56 1001 10 16.0934 0 0
6:55 pm 18:55 Sunny 71 21.6 40 4.6 33 33 SSE 17 28 29.56 1001 10 16.0934 0 0
7:15 pm 19:15 Sunny 71 21.5 41 4.8 34 34 SSE 16 26 29.53 1000 10 16.0934 0 0
7:35 pm 19:35 Sunny 71 21.4 41 4.9 34 34 SSE 17 28 29.53 1000 10 16.0934 0 0
7:55 pm 19:55 Sunny 69 20.3 40 4.7 36 36 SSE 14 22 29.53 1000 10 16.0934 0 0
8:15 pm 20:15 Clear 67 19.5 41 5 39 39 S 14 22 29.53 1000 10 16.0934 0 0
8:35 pm 20:35 Clear 66 18.8 41 5 40 40 SSE 12 19 29.56 1001 10 16.0934 0 0
8:55 pm 20:55 Clear 65 18.5 41 5.1 41 41 S 14 22 29.53 1000 10 16.0934 0 0
9:15 pm 21:15 Clear 64 17.6 42 5.5 45 45 SSE 10 17 29.56 1001 10 16.0934 0 0
9:35 pm 21:35 Clear 61 15.9 42 5.4 50 50 SSE 9 15 29.53 1000 10 16.0934 0 0
9:55 pm 21:55 Clear 61 15.9 42 5.5 50 50 S 9 15 29.53 1000 10 16.0934 0 0
10:15 pm 22:15 Clear 61 16.1 43 6 51 51 S 12 19 29.53 1000 10 16.0934 0 0
10:35 pm 22:35 Clear 60 15.8 43 6.1 53 53 S 9 15 29.53 1000 10 16.0934 0 0
10:55 pm 22:55 Clear 61 16.3 44 6.8 54 54 S 13 20 29.53 1000 10 16.0934 0 0
11:15 pm 23:15 Clear 63 17 45 7.1 52 52 S 15 24 29.53 1000 10 16.0934 0 0
11:35 pm 23:35 Clear 63 17 46 7.6 54 54 S 20 31 29.53 1000 10 16.0934 0 0
11:55 pm 23:55 Clear 62 16.6 46 7.7 56 56 S 14 22 29.53 1000 10 16.0934 0 0

Powered by AerisWeather